Location: Chuathbaluk
(61.5726°N, 159.2454°W)
Time: 05:48:30
(UTC+00:00)

FO-99 - Pass Details

Date: 21 January 2021
Orbit: 473 x 506 km, 97.2° (Epoch: 08 March)

Event Time Altitude Azimuth Distance (km) Brightness Sun altitude
Exits shadow 04:48:15 11° 11° (NNE) 1,625 ? -17.4°
Drops below altitude 10° 04:48:32 10° 8° (N) 1,709 ? -17.4°
Sets 04:51:04 0° 349° (N) 2,589 ? -17.7°
